Location: Aulagny
(45.1643°N, 4.3096°E)
Time: 17:29:34
(UTC+00:00)

Cosmos 292 Rocket - Pass Details

Date: 21 October 2019
Orbit: 673 x 695 km, 74.0° (Epoch: 20 November)

Event Time Altitude Azimuth Distance (km) Brightness Sun altitude
Rises 17:24:16 0° 198° (SSW) 3,010 7.5 -7.1°
Reaches altitude 10° 17:26:33 10° 198° (SSW) 2,099 6.6 -7.5°
Maximum altitude 17:31:17 87° 110° (ESE) 681 3.7 -8.3°
Drops below altitude 10° 17:36:03 10° 22° (NNE) 2,118 6.0 -9.1°
Sets 17:38:21 0° 22° (NNE) 3,039 6.8 -9.5°
